EW5035 Weather Reports


Display with metric or nautical units.
time (UTC)temp
F
wind
direction
speed
MPH
gust
MPH
rain 1hr
in
rain 24hr
in
rain mn
in
humidity
%
barometer
mb
20260903214037 64 192 5.0 11.0 0.00 0.09 0.09 43 1010.8
20260903213536 64 192 2.0 11.0 0.00 0.09 0.09 43 1010.8
20260903213053 64 192 6.0 11.0 0.00 0.09 0.09 41 1010.9
20260903212537 64 192 7.0 13.0 0.00 0.09 0.09 41 1011.1
20260903212037 64 188 8.0 13.0 0.00 0.09 0.09 43 1011.2
20260903211605 64 190 6.0 13.0 0.00 0.09 0.09 42 1011.2
20260903211037 64 190 8.0 13.0 0.00 0.09 0.09 42 1011.3
20260903210535 64 200 3.0 11.0 0.00 0.09 0.09 42 1011.4
20260903210113 64 200 8.0 13.0 0.00 0.09 0.09 42 1011.3
20260903205535 64 186 7.0 13.0 0.00 0.09 0.09 42 1011.3
20260903205035 64 196 10.0 13.0 0.00 0.09 0.09 42 1011.3
20260903204557 64 195 7.0 10.0 0.00 0.09 0.09 43 1011.3
20260903204035 64 197 5.0 10.0 0.00 0.09 0.09 43 1011.3
20260903203535 64 197 7.0 13.0 0.00 0.09 0.09 42 1011.4
20260903203053 64 198 8.0 13.0 0.00 0.09 0.09 42 1011.3
20260903202537 64 199 5.0 12.0 0.00 0.09 0.09 44 1011.0
20260903202035 64 219 4.0 12.0 0.00 0.09 0.09 43 1011.0
20260903201601 64 219 6.0 15.0 0.00 0.09 0.09 42 1011.2
20260903201037 64 230 7.0 15.0 0.00 0.09 0.09 45 1011.3
20260903200535 63 225 7.0 15.0 0.00 0.09 0.09 43 1011.5
20260903200054 64 236 11.0 15.0 0.00 0.09 0.09 43 1011.5
20260903195537 63 168 10.0 15.0 0.00 0.09 0.09 44 1011.5
20260903195036 63 201 6.0 16.0 0.00 0.09 0.09 45 1011.6
20260903194552 63 203 9.0 16.0 0.00 0.09 0.09 43 1011.7
20260903194039 63 209 9.0 15.0 0.00 0.09 0.09 43 1011.7
20260903193535 63 185 7.0 18.0 0.00 0.09 0.09 48 1011.7
20260903193100 63 155 10.0 18.0 0.00 0.09 0.09 49 1011.7
20260903192531 63 188 7.0 17.0 0.00 0.09 0.09 47 1011.8
20260903192035 62 196 10.0 17.0 0.00 0.09 0.09 47 1011.8
20260903191558 63 197 9.0 17.0 0.00 0.09 0.09 49 1011.8
20260903191035 63 206 8.0 17.0 0.00 0.09 0.09 48 1011.9
20260903190531 63 211 8.0 15.0 0.00 0.09 0.09 48 1012.0
20260903190051 62 214 8.0 15.0 0.00 0.09 0.09 48 1012.0
20260903185533 62 198 6.0 14.0 0.00 0.09 0.09 50 1012.1
20260903185033 62 184 8.0 16.0 0.00 0.09 0.09 50 1012.1
20260903184556 62 202 11.0 16.0 0.00 0.09 0.09 52 1012.2
20260903184033 62 187 11.0 16.0 0.00 0.09 0.09 50 1012.2
20260903183531 61 202 6.0 18.0 0.00 0.09 0.09 52 1012.1
20260903183051 61 200 11.0 18.0 0.00 0.09 0.09 50 1012.2
20260903182533 61 205 10.0 20.0 0.00 0.09 0.09 52 1012.2
20260903182033 61 192 10.0 20.0 0.00 0.09 0.09 53 1012.2
20260903181553 61 227 12.0 19.0 0.00 0.09 0.09 56 1012.2
20260903181031 61 204 11.0 20.0 0.00 0.09 0.09 55 1012.2
20260903180531 61 192 12.0 20.0 0.00 0.09 0.09 55 1012.2
20260903180054 61 191 11.0 20.0 0.00 0.09 0.09 55 1012.2
20260903175533 61 232 12.0 21.0 0.00 0.09 0.09 55 1012.2
20260903175033 61 196 10.0 21.0 0.00 0.09 0.09 55 1012.2
20260903174551 60 193 13.0 20.0 0.00 0.09 0.09 57 1012.2
20260903174033 60 231 12.0 20.0 0.00 0.09 0.09 58 1012.2
20260903173534 60 220 12.0 20.0 0.00 0.09 0.09 58 1012.2
20260903173049 59 201 13.0 20.0 0.00 0.09 0.09 60 1012.2
20260903172533 60 205 12.0 19.0 0.00 0.09 0.09 64 1012.2
20260903172031 59 175 12.0 19.0 0.00 0.09 0.09 63 1012.0
20260903171557 59 188 12.0 23.0 0.00 0.09 0.09 65 1012.2
20260903171031 59 196 12.0 23.0 0.00 0.09 0.09 66 1012.2
20260903170531 59 175 13.0 21.0 0.00 0.09 0.09 65 1012.1
20260903170050 59 193 13.0 21.0 0.00 0.09 0.09 66 1012.0
20260903165534 59 180 13.0 21.0 0.00 0.09 0.09 65 1011.9
20260903165034 59 209 15.0 22.0 0.00 0.09 0.09 67 1011.9
20260903164605 58 205 13.0 22.0 0.00 0.09 0.09 67 1011.9
20260903164033 58 184 16.0 23.0 0.00 0.09 0.09 66 1011.9
20260903163534 58 170 16.0 24.0 0.00 0.09 0.09 71 1011.9
20260903163059 57 188 15.0 24.0 0.00 0.09 0.09 70 1011.9
20260903162533 57 200 15.0 23.0 0.00 0.09 0.09 70 1011.7
20260903162033 57 184 12.0 18.0 0.00 0.09 0.09 70 1011.9
20260903161555 57 178 11.0 16.0 0.00 0.09 0.09 73 1011.8
20260903161031 56 153 8.0 16.0 0.01 0.09 0.09 77 1011.9
20260903160534 56 161 9.0 17.0 0.01 0.09 0.09 77 1011.9
20260903160050 56 163 9.0 17.0 0.01 0.09 0.09 78 1011.9
20260903155537 56 164 9.0 16.0 0.01 0.09 0.09 78 1012.0
20260903155033 56 166 9.0 16.0 0.01 0.09 0.09 79 1012.0
20260903154551 56 160 10.0 16.0 0.01 0.09 0.09 79 1012.0
20260903154034 56 159 11.0 16.0 0.01 0.09 0.09 79 1011.9
20260903153534 56 155 10.0 15.0 0.01 0.09 0.09 82 1011.9
20260903153048 55 155 10.0 17.0 0.01 0.09 0.09 82 1012.0
20260903152535 55 163 10.0 17.0 0.01 0.09 0.09 82 1012.1
20260903152035 55 165 9.0 15.0 0.01 0.09 0.09 83 1011.9
20260903151554 55 165 8.0 15.0 0.01 0.09 0.09 84 1012.0
20260903151034 55 173 7.0 11.0 0.00 0.08 0.08 84 1012.1
20260903150534 55 173 3.0 9.0 0.00 0.08 0.08 85 1012.0
20260903150050 55 173 3.0 12.0 0.00 0.08 0.08 85 1012.0
20260903145530 54 173 5.0 12.0 0.00 0.08 0.08 84 1011.9
20260903145031 54 173 5.0 15.0 0.00 0.08 0.08 84 1012.0
20260903144551 54 173 7.0 15.0 0.00 0.08 0.08 85 1011.9
20260903144031 54 180 9.0 15.0 0.00 0.08 0.08 84 1011.8
20260903143530 54 173 9.0 16.0 0.00 0.08 0.08 85 1011.7
20260903143105 53 170 11.0 18.0 0.00 0.08 0.08 85 1011.7
20260903142530 53 169 12.0 18.0 0.00 0.08 0.08 86 1011.7
20260903142033 53 176 9.0 15.0 0.00 0.08 0.08 86 1011.7
20260903141557 53 169 5.0 15.0 0.00 0.08 0.08 86 1011.7
20260903141036 53 169 7.0 15.0 0.00 0.08 0.08 87 1011.6
20260903140535 53 171 9.0 16.0 0.00 0.08 0.08 87 1011.6
20260903140054 53 168 10.0 17.0 0.00 0.08 0.08 87 1011.6
20260903135533 53 164 10.0 17.0 0.00 0.08 0.08 88 1011.7
20260903135035 52 172 9.0 15.0 0.00 0.08 0.08 87 1011.7
20260903134549 52 172 9.0 16.0 0.00 0.08 0.08 87 1011.6
20260903134031 52 175 8.0 16.0 0.00 0.08 0.08 88 1011.7
20260903133531 52 180 6.0 12.0 0.00 0.08 0.08 88 1011.5
20260903133056 53 183 7.0 19.0 0.00 0.08 0.08 87 1011.4
20260903132534 53 174 8.0 19.0 0.00 0.08 0.08 88 1011.4
20260903132030 53 164 11.0 19.0 0.00 0.08 0.08 88 1011.2
20260903131608 53 168 11.0 17.0 0.00 0.08 0.08 88 1011.1
20260903131034 53 158 6.0 17.0 0.00 0.08 0.08 88 1011.1
20260903130535 53 163 5.0 14.0 0.00 0.08 0.08 88 1011.0
20260903130105 53 161 5.0 13.0 0.00 0.08 0.08 88 1010.8
20260903125531 53 161 8.0 13.0 0.00 0.08 0.08 88 1010.8
20260903125030 53 159 8.0 13.0 0.00 0.08 0.08 88 1010.8
20260903124549 53 159 7.0 17.0 0.00 0.08 0.08 88 1010.8
20260903124030 53 157 7.0 18.0 0.00 0.08 0.08 88 1010.7
20260903123533 53 175 11.0 18.0 0.00 0.08 0.08 88 1010.6
20260903123102 53 144 13.0 20.0 0.00 0.08 0.08 88 1010.5
20260903122531 53 153 12.0 20.0 0.00 0.08 0.08 87 1010.5
20260903122034 53 160 13.0 18.0 0.00 0.08 0.08 87 1010.6
20260903121553 53 161 13.0 18.0 0.00 0.08 0.08 87 1010.4
20260903121035 53 161 12.0 19.0 0.00 0.08 0.08 87 1010.4
20260903120538 54 150 11.0 19.0 0.00 0.08 0.08 87 1010.3
20260903120049 54 150 13.0 18.0 0.00 0.08 0.08 87 1010.2
20260903115534 54 145 11.0 16.0 0.00 0.08 0.08 87 1010.1
20260903115035 54 150 10.0 19.0 0.00 0.08 0.08 87 1010.1
20260903114551 54 154 10.0 19.0 0.00 0.08 0.08 87 1010.3
20260903114031 54 153 13.0 19.0 0.00 0.08 0.08 87 1010.3
20260903113532 54 164 11.0 17.0 0.00 0.08 0.08 87 1010.3
20260903113059 54 163 9.0 19.0 0.00 0.08 0.08 87 1010.3
20260903112531 54 173 8.0 19.0 0.00 0.08 0.08 87 1010.3
20260903112034 54 169 11.0 18.0 0.00 0.08 0.08 87 1010.3
20260903111604 54 161 11.0 18.0 0.00 0.08 0.08 87 1010.2
20260903111035 54 154 11.0 18.0 0.00 0.08 0.08 87 1010.2
20260903110534 54 167 9.0 17.0 0.00 0.08 0.08 87 1010.3
20260903110051 54 163 11.0 19.0 0.00 0.08 0.08 87 1010.3
20260903105533 54 171 10.0 19.0 0.00 0.08 0.08 87 1010.4
20260903105031 54 173 11.0 17.0 0.00 0.08 0.08 87 1010.3
20260903104557 54 167 9.0 16.0 0.00 0.08 0.08 87 1010.3
20260903104033 54 169 9.0 17.0 0.01 0.08 0.08 87 1010.2
20260903103531 54 165 9.0 17.0 0.01 0.08 0.08 88 1010.2
20260903103059 54 163 7.0 14.0 0.01 0.08 0.08 88 1010.3
20260903102532 54 162 7.0 15.0 0.01 0.08 0.08 88 1010.2
20260903102033 54 161 6.0 15.0 0.01 0.08 0.08 88 1010.3
20260903101558 54 159 8.0 14.0 0.01 0.08 0.08 88 1010.3
20260903101034 54 159 9.0 14.0 0.01 0.08 0.08 88 1010.3
20260903100534 54 140 7.0 14.0 0.01 0.08 0.08 88 1010.1
20260903100054 54 139 8.0 14.0 0.01 0.08 0.08 88 1010.0
20260903095533 54 139 11.0 14.0 0.01 0.08 0.08 88 1010.1
20260903095030 54 139 8.0 15.0 0.01 0.08 0.08 88 1010.1
20260903094552 54 139 10.0 15.0 0.01 0.08 0.08 88 1009.9
20260903094034 54 139 11.0 16.0 0.00 0.07 0.07 89 1010.0
20260903093531 55 139 9.0 16.0 0.00 0.07 0.07 89 1009.8
20260903093106 55 143 9.0 17.0 0.01 0.07 0.07 89 1009.7
20260903092538 55 143 11.0 17.0 0.01 0.07 0.07 89 1009.7
20260903092034 55 150 8.0 16.0 0.01 0.07 0.07 89 1009.7
20260903091554 55 150 10.0 15.0 0.02 0.07 0.07 89 1009.7
20260903091033 55 150 9.0 14.0 0.02 0.07 0.07 88 1009.7
20260903090531 55 150 8.0 14.0 0.02 0.07 0.07 88 1009.6
20260903090052 55 150 9.0 14.0 0.02 0.07 0.07 88 1009.7
20260903085531 55 160 8.0 14.0 0.02 0.07 0.07 88 1009.7
20260903085031 55 165 7.0 14.0 0.03 0.07 0.07 88 1009.7
20260903084551 55 167 8.0 14.0 0.03 0.07 0.07 88 1009.8
20260903084031 55 167 7.0 11.0 0.04 0.07 0.07 88 1009.8
20260903083530 55 167 7.0 11.0 0.04 0.07 0.07 89 1009.7
20260903083100 55 182 7.0 14.0 0.04 0.06 0.06 89 1009.8
20260903082530 55 182 8.0 15.0 0.05 0.06 0.06 89 1009.9
20260903082036 55 179 8.0 15.0 0.05 0.06 0.06 89 1009.9
20260903081553 55 182 10.0 15.0 0.04 0.05 0.05 89 1009.8
20260903081033 55 172 9.0 15.0 0.05 0.05 0.05 89 1009.9
20260903080534 55 172 9.0 15.0 0.05 0.05 0.05 89 1009.8
20260903080056 55 175 8.0 16.0 0.05 0.05 0.05 89 1009.8
20260903075534 55 186 7.0 16.0 0.05 0.05 0.05 89 1009.8
20260903075034 55 163 9.0 15.0 0.04 0.04 0.04 89 1009.8
20260903074601 55 168 10.0 16.0 0.04 0.04 0.04 89 1009.6
20260903074031 55 169 8.0 16.0 0.03 0.03 0.03 89 1009.7
20260903073534 55 178 8.0 15.0 0.02 0.02 0.02 89 1009.7
20260903073050 55 169 8.0 15.0 0.02 0.02 0.02 88 1009.6
20260903072534 56 189 6.0 17.0 0.01 0.01 0.01 88 1009.6
20260903072035 56 190 8.0 18.0 0.01 0.01 0.01 88 1009.6
20260903071554 56 190 10.0 20.0 0.01 0.01 0.01 87 1009.6
20260903071033 56 175 12.0 20.0 0.00 0.00 0.00 87 1009.5
20260903070531 56 195 10.0 16.0 0.00 0.00 0.00 87 1009.5
20260903070051 56 184 9.0 16.0 0.00 0.00 0.00 87 1009.5
20260903065534 56 183 11.0 15.0 0.00 0.00 0.00 87 1009.5
20260903065034 56 175 9.0 18.0 0.00 0.00 0.00 87 1009.5
20260903064550 56 158 3.0 18.0 0.00 0.00 0.00 86 1009.4
20260903064034 56 176 6.0 18.0 0.00 0.00 0.00 86 1009.3
20260903063531 56 162 4.0 16.0 0.00 0.00 0.00 86 1009.5
20260903063058 56 176 5.0 20.0 0.00 0.00 0.00 86 1009.4
20260903062534 56 183 7.0 20.0 0.00 0.00 0.00 86 1009.6
20260903062031 56 180 7.0 14.0 0.00 0.00 0.00 86 1009.5
20260903061555 56 180 6.0 14.0 0.00 0.00 0.00 86 1009.5
20260903061034 56 182 6.0 13.0 0.00 0.00 0.00 86 1009.5
20260903060533 56 182 7.0 13.0 0.00 0.00 0.00 86 1009.6
20260903060050 56 182 8.0 13.0 0.00 0.00 0.00 86 1009.6
20260903055534 57 184 6.0 12.0 0.00 0.00 0.00 85 1009.6
20260903055031 57 190 7.0 12.0 0.00 0.00 0.00 85 1009.6
20260903054559 57 168 6.0 15.0 0.00 0.00 0.00 85 1009.6
20260903054034 57 168 7.0 15.0 0.00 0.00 0.00 85 1009.6
20260903053531 57 167 8.0 16.0 0.00 0.00 0.00 85 1009.5
20260903053057 57 165 9.0 16.0 0.00 0.00 0.00 85 1009.5
20260903052533 57 174 7.0 13.0 0.00 0.00 0.00 85 1009.5
20260903052034 57 182 6.0 12.0 0.00 0.00 0.00 84 1009.6
20260903051553 57 184 6.0 13.0 0.00 0.00 0.00 84 1009.6
20260903051034 57 162 7.0 13.0 0.00 0.00 0.00 84 1009.7
20260903050530 57 163 6.0 13.0 0.00 0.00 0.00 84 1009.7
20260903050053 57 161 7.0 15.0 0.00 0.00 0.00 83 1009.7
20260903045531 57 162 8.0 15.0 0.00 0.00 0.00 83 1009.8
20260903045038 57 184 5.0 11.0 0.00 0.00 0.00 82 1009.8
20260903044548 58 184 6.0 14.0 0.00 0.00 0.00 82 1009.8
20260903044037 58 184 6.0 14.0 0.00 0.00 0.00 82 1009.7
20260903043532 58 185 5.0 10.0 0.00 0.00 0.00 82 1009.7
20260903043053 58 185 5.0 11.0 0.00 0.00 0.00 82 1009.7
20260903042534 58 185 5.0 13.0 0.00 0.00 0.00 81 1009.6
20260903042037 58 188 7.0 13.0 0.00 0.00 0.00 82 1009.7
20260903041557 58 200 4.0 8.0 0.00 0.00 0.00 82 1009.6
20260903041033 58 200 5.0 10.0 0.00 0.00 0.00 82 1009.6
20260903040534 58 199 4.0 10.0 0.00 0.00 0.00 82 1009.5
20260903040051 58 197 5.0 10.0 0.00 0.00 0.00 81 1009.6
20260903035530 58 198 6.0 12.0 0.00 0.00 0.00 80 1009.6
20260903035034 58 197 7.0 12.0 0.00 0.00 0.00 80 1009.6
20260903034602 59 199 8.0 12.0 0.00 0.00 0.00 79 1009.6
20260903034034 59 198 8.0 12.0 0.00 0.00 0.00 78 1009.4
20260903033536 59 198 7.0 12.0 0.00 0.00 0.00 78 1009.4
20260903033053 59 198 7.0 11.0 0.00 0.00 0.00 78 1009.4
20260903032535 59 205 6.0 10.0 0.00 0.00 0.00 78 1009.3
20260903032034 59 209 6.0 11.0 0.00 0.00 0.00 78 1009.3
20260903031552 59 209 7.0 11.0 0.00 0.00 0.00 77 1009.3
20260903031034 59 202 7.0 11.0 0.00 0.00 0.00 77 1009.3
20260903030534 59 200 8.0 11.0 0.00 0.00 0.00 76 1009.3
20260903030100 59 199 6.0 10.0 0.00 0.00 0.00 76 1009.2
20260903025537 59 199 7.0 11.0 0.00 0.00 0.00 75 1009.1
20260903025036 60 205 8.0 11.0 0.00 0.00 0.00 74 1009.2
20260903024554 60 208 8.0 12.0 0.00 0.00 0.00 73 1009.2
20260903024033 60 219 6.0 13.0 0.00 0.00 0.00 72 1009.2
20260903023533 60 219 8.0 16.0 0.00 0.00 0.00 71 1009.0
20260903023113 60 223 9.0 16.0 0.00 0.00 0.00 71 1009.0
20260903022533 60 214 5.0 10.0 0.00 0.00 0.00 72 1009.1
20260903022035 60 214 5.0 10.0 0.00 0.00 0.00 72 1009.1
20260903021600 60 215 7.0 11.0 0.00 0.00 0.00 72 1009.1
20260903021034 60 217 5.0 11.0 0.00 0.00 0.00 72 1009.1
20260903020537 60 217 7.0 12.0 0.00 0.00 0.00 72 1009.2
20260903020055 60 216 6.0 15.0 0.00 0.00 0.00 72 1009.2
20260903015536 60 217 8.0 17.0 0.00 0.00 0.00 71 1009.2
20260903015031 60 215 12.0 25.0 0.00 0.00 0.00 68 1009.2
20260903014601 61 217 15.0 25.0 0.00 0.00 0.00 66 1009.2
20260903014034 63 224 18.0 27.0 0.00 0.00 0.00 62 1009.2
20260903013531 64 219 16.0 27.0 0.00 0.00 0.00 58 1009.0
20260903013059 64 216 21.0 26.0 0.00 0.00 0.00 55 1008.9
20260903012535 65 217 16.0 24.0 0.00 0.00 0.00 53 1008.7
20260903012040 65 229 13.0 23.0 0.00 0.00 0.00 53 1008.5
20260903011607 65 234 17.0 23.0 0.00 0.00 0.00 52 1008.5
20260903011037 66 238 13.0 26.0 0.00 0.00 0.00 51 1008.5
20260903010535 66 222 18.0 26.0 0.00 0.00 0.00 51 1008.3
20260903010059 66 224 17.0 24.0 0.00 0.00 0.00 50 1008.5
20260903005533 66 220 15.0 20.0 0.00 0.00 0.00 50 1008.2
20260903005035 66 215 13.0 25.0 0.00 0.00 0.00 51 1008.4
20260903004555 66 226 16.0 25.0 0.00 0.00 0.00 51 1008.3
20260903004031 66 219 16.0 23.0 0.00 0.00 0.00 51 1008.4
20260903003535 66 213 14.0 22.0 0.00 0.00 0.00 52 1008.3
20260903003054 66 234 15.0 24.0 0.00 0.00 0.00 53 1008.3
20260903002535 66 222 16.0 24.0 0.00 0.00 0.00 53 1008.5
20260903002035 65 218 17.0 24.0 0.00 0.00 0.00 54 1008.4
20260903001601 65 218 7.0 16.0 0.00 0.00 0.00 62 1008.5
20260903001037 64 236 11.0 15.0 0.00 0.00 0.00 61 1008.3
20260903000534 64 211 8.0 17.0 0.00 0.00 0.00 66 1008.3
20260903000050 64 223 11.0 20.0 0.00 0.00 0.00 68 1008.2
20260902235535 63 221 13.0 20.0 0.00 0.00 0.00 69 1008.3
20260902235035 63 221 14.0 35.0 0.00 0.00 0.00 70 1008.3
20260902234600 63 226 19.0 47.0 0.00 0.00 0.00 69 1008.3
20260902234034 65 224 30.0 47.0 0.00 0.00 0.00 60 1008.0
20260902233535 73 229 18.0 24.0 0.00 0.00 0.00 38 1007.5
20260902233052 73 234 13.0 19.0 0.00 0.00 0.00 37 1007.0
20260902232534 73 228 11.0 17.0 0.00 0.00 0.00 37 1006.7
20260902232034 74 229 10.0 16.0 0.00 0.00 0.00 36 1006.6
20260902231600 74 228 10.0 15.0 0.00 0.00 0.00 36 1006.5
20260902231034 74 223 8.0 14.0 0.00 0.00 0.00 35 1006.5
20260902230537 75 228 7.0 13.0 0.00 0.00 0.00 34 1006.5
20260902230104 75 242 5.0 11.0 0.00 0.00 0.00 34 1006.3
20260902225534 75 242 2.0 8.0 0.00 0.00 0.00 35 1006.5
20260902225037 75 242 2.0 10.0 0.00 0.00 0.00 35 1006.4
20260902224603 74 242 5.0 10.0 0.00 0.00 0.00 36 1006.5
20260902224034 74 240 5.0 9.0 0.00 0.00 0.00 35 1006.4
20260902223535 74 240 5.0 9.0 0.00 0.00 0.00 35 1006.4
20260902223104 74 240 0.0 8.0 0.00 0.00 0.00 36 1006.5
20260902222534 74 239 4.0 8.0 0.00 0.00 0.00 36 1006.5
20260902222035 75 240 3.0 6.0 0.00 0.00 0.00 35 1006.6
20260902221552 74 240 2.0 7.0 0.00 0.00 0.00 36 1006.5
20260902221034 73 239 3.0 8.0 0.00 0.00 0.00 37 1006.6
20260902220535 73 0 3.0 8.0 0.00 0.00 0.00 37 1006.7
20260902220059 73 239 5.0 10.0 0.00 0.00 0.00 37 1006.8
20260902215534 72 239 3.0 10.0 0.00 0.00 0.00 38 1006.8
20260902215035 72 240 4.0 12.0 0.00 0.00 0.00 37 1006.9
20260902214601 72 240 7.0 12.0 0.00 0.00 0.00 38 1007.0